Kosmos-637

operational
NORAD ID: 7229 Int'l Des: 1974-017 Owner: OKB10 Country: SU
MEOCIRCULAR

About Kosmos-637

Description loading...

Live Position

Loading 3D Globe...

Upcoming Passes

Altitude History

Altitude vs Time

uPlot chart will show altitude changes over time

Two-Line Element Set

1 7229U 74017A 26103.06814041 -.00000147 00000-0 00000+0 0 9997
2 7229 0.9919 254.9279 0038876 75.4832 148.3827 1.00786092121548
Epoch: Apr 13, 2026 • Age: 6 hours

Current Status

Altitude 35720.1 km
Velocity 3.07 km/s
Sub-Earth Point -0.67°S, 106.91°W
Type other

Large Constellations

Loading constellations...